Hovedside
METAR-TAF:

METAR-TAF

Lufthavner :

Hemavan, Sverige

Hemavan flyplass

breddegrad: 65-48-22N, lengdegrad: 015-04-58E, høyde over havet: 458 m

Gjeldene værobservasjon

Denne rapporten ble laget for 7 minutter siden, klokken 07:20 UTC
Vind 3 kt fra Sør-sørøst
Temperatur 2°C
Luftfuktighet 93%
Trykk 996 hPa
Sikt 10 km eller mer
lett regn

METAR: ESUT 210720Z AUTO 15003KT 9999 -RA VV016 02/01 Q0996

Tid: 09:27 (07:27 UTC)


TAF: fraværende

Værobservasjoner og værvarsel for over 4000 flyplasser (METAR- og TAF-rapporter).

Tilgjengelige stasjoner er representert av de røde og gule prikkene på kartet.

Hold musepekeren over prikken for å se navnet på stasjonen.

Klikk så for å se værobservasjoner og -varsler.

For å forandre kartet kan du klikke på den grønne knappen med svart kryss for å zoome inn, på den grønne knappen med strek for å zoome ut, eller på de grønne pilene for å se tilstøtende kart.


METAR-TAF: